TimeCDT,TemperatureF,Dew PointF,Humidity,Sea Level PressureIn,VisibilityMPH,Wind Direction,Wind SpeedMPH,Gust SpeedMPH,PrecipitationIn,Events,Conditions,WindDirDegrees,DateUTC
12:45 AM,78,75,88,30.04,6,NNE,4.5,,,,Scattered Clouds,20,2012-10-27 05:45:00
3:45 AM,68,61,73,30.04,6,North,11.2,,,,Scattered Clouds,0,2012-10-27 08:45:00
6:08 AM,68.0,60.8,78,30.03,7.0,North,23.0,-,N/A,,Mostly Cloudy,350,2012-10-27 11:08:00
6:42 AM,68.0,59.0,73,30.00,7.0,North,24.2,-,N/A,,Mostly Cloudy,360,2012-10-27 11:42:00
6:45 AM,67,61,75,30.07,7,North,11.2,,,,Mostly Cloudy,0,2012-10-27 11:45:00
7:44 AM,66.2,59.0,78,30.07,7.0,North,21.9,-,N/A,,Scattered Clouds,360,2012-10-27 12:44:00
8:49 AM,66.2,57.2,73,30.10,7.0,North,21.9,-,N/A,,Mostly Cloudy,360,2012-10-27 13:49:00
9:43 AM,68.0,57.2,68,30.12,7.0,North,23.0,-,N/A,,Mostly Cloudy,10,2012-10-27 14:43:00
9:45 AM,68,60,68,30.15,16,NNE,8.9,,,,Partly Cloudy,20,2012-10-27 14:45:00
10:44 AM,68.0,57.2,68,30.13,7.0,North,23.0,-,N/A,,Mostly Cloudy,360,2012-10-27 15:44:00
11:42 AM,69.8,57.2,64,30.14,7.0,North,11.5,-,N/A,,Mostly Cloudy,360,2012-10-27 16:42:00
12:45 PM,70,59,60,30.15,16,North,6.7,,,,Overcast,0,2012-10-27 17:45:00
12:47 PM,69.8,57.2,64,30.07,7.0,NNE,11.5,-,N/A,,Mostly Cloudy,30,2012-10-27 17:47:00
1:41 PM,69.8,57.2,64,30.10,7.0,NW,9.2,-,N/A,,Mostly Cloudy,310,2012-10-27 18:41:00
2:40 PM,69.8,59.0,68,30.07,7.0,NW,9.2,-,N/A,,Mostly Cloudy,320,2012-10-27 19:40:00
3:45 PM,70,60,61,30.09,16,North,6.7,,,,Partly Cloudy,350,2012-10-27 20:45:00
3:45 PM,68.0,59.0,73,30.06,7.0,ENE,6.9,-,N/A,,Mostly Cloudy,70,2012-10-27 20:45:00
4:48 PM,68.0,57.2,68,30.05,8.0,NNE,11.5,-,N/A,,Mostly Cloudy,20,2012-10-27 21:48:00
5:44 PM,68.0,57.2,68,30.06,8.0,NNW,9.2,-,N/A,,Mostly Cloudy,340,2012-10-27 22:44:00
6:40 PM,68.0,59.0,73,30.08,8.0,NW,9.2,-,N/A,,Mostly Cloudy,320,2012-10-27 23:40:00
7:00 PM,68,62,76,30.11,14,NW,4.5,,,,Overcast,320,2012-10-28 00:00:00
7:42 PM,68.0,60.8,78,30.08,8.0,WNW,5.8,-,N/A,,Mostly Cloudy,290,2012-10-28 00:42:00
8:42 PM,68.0,60.8,78,30.11,8.0,WNW,5.8,-,N/A,,Mostly Cloudy,290,2012-10-28 01:42:00
9:44 PM,68.0,53.6,60,30.12,10.0,North,9.2,-,N/A,,Mostly Cloudy,350,2012-10-28 02:44:00
10:40 PM,68.0,51.8,56,30.14,10.0,NNW,9.2,-,N/A,,Mostly Cloudy,340,2012-10-28 03:40:00